User: anonymous   Login
Location: Unspecified
(0.0000°N, 0.0000°E)
Time: 20:38:28
(UTC+00:00)
Language:

NOSS 3-1 (A) - Orbit

View from above orbital plane
View from above orbital plane
View from above satellite
View from above satellite

Ground track
Ground track

The orbit data is extracted from the following two-line orbital elements,

1 26905U 01040A   17229.84481902 0.00000000  00000-0  00000-0 0    07
2 26905  63.4100 236.1915 0377000 358.2371   1.7629 13.40750257    00
Epoch (UTC): 17 August 2017 20:16:32
Eccentricity: 0.0377000
inclination: 63.4100°
perigee height: 824 km
apogee height: 1388 km
right ascension of ascending node: 236.1915°
argument of perigee: 358.2371°
revolutions per day: 13.40750257
mean anomaly at epoch: 1.7629°
orbit number at epoch: 0

The dashed part of the orbit path shows where the satellite is in the earth's shadow,  

DLR